GW0035 Weather Reports


Display with metric or nautical units.
time (UTC)temp
F
wind
direction
speed
MPH
gust
MPH
rain 1hr
in
rain 24hr
in
rain mn
in
humidity
%
barometer
mb
20260505125028 88 293 4.0 4.0 0.00 0.00 0.00 78 994.9
20260505124028 89 270 5.0 5.0 0.00 0.00 0.00 78 994.6
20260505123528 89 270 5.0 5.0 0.00 0.00 0.00 78 994.6
20260505123028 89 270 5.0 5.0 0.00 0.00 0.00 77 994.6
20260505122528 90 270 5.0 5.0 0.00 0.00 0.00 77 994.2
20260505122028 91 248 6.0 6.0 0.00 0.00 0.00 76 994.2
20260505121528 91 225 6.0 6.0 0.00 0.00 0.00 76 993.9
20260505120028 91 270 6.0 6.0 0.00 0.00 0.00 75 993.9
20260505114028 93 270 6.0 6.0 0.00 0.00 0.00 74 993.6
20260505112528 95 23 5.0 5.0 0.00 0.00 0.00 72 993.6
20260505111528 95 248 5.0 5.0 0.00 0.00 0.00 72 993.6
20260505110528 95 248 3.0 3.0 0.00 0.00 0.00 72 993.2
20260505025835 82 45 0.0 0.0 0.00 0.00 0.00 92 998.0
20260505025335 82 68 0.0 0.0 0.00 0.00 0.00 93 997.6
20260505023835 81 113 0.0 0.0 0.00 0.00 0.00 96 997.6
20260505022835 80 45 0.0 0.0 0.00 0.00 0.00 97 997.3
20260505022335 80 45 0.0 0.0 0.00 0.00 0.00 97 997.3
20260505021835 80 45 0.0 0.0 0.00 0.00 0.00 98 997.3
20260505021335 80 45 0.0 0.0 0.00 0.00 0.00 98 997.3
20260505012522 77 270 0.0 0.0 0.00 0.00 0.00 99 997.0
20260505011522 77 270 0.0 0.0 0.00 0.00 0.00 99 997.0
20260505010523 77 248 0.0 0.0 0.00 0.00 0.00 99 996.6
20260505010023 77 248 0.0 0.0 0.00 0.00 0.00 99 996.6
20260505004023 77 248 0.0 0.0 0.00 0.00 0.00 99 996.6